Location: Freistadt
(48.5112°N, 14.5013°E)
Time: 10:25:41
(UTC+02:00)

MOZHAYETS 4 - Pass Details

Date: 04 April 2023
Orbit: 657 x 675 km, 98.2° (Epoch: 03 June)

Event Time Altitude Azimuth Distance (km) Brightness Sun altitude
Exits shadow 03:11:01 48° 50° (NE) 863 8.5 -29.4°
Drops below altitude 10° 03:15:00 10° 355° (N) 2,093 10.8 -29.0°
Sets 03:17:17 0° 351° (N) 3,013 11.7 -28.7°
